Location: Centerville
(32.8776°N, 96.6203°W)
Time: 04:28:08
(UTC+00:00)

Aureole 3 Rocket - Pass Details

Date: 17 June 2021
Orbit: 399 x 1739 km, 82.5° (Epoch: 29 July)

Event Time Altitude Azimuth Distance (km) Brightness Sun altitude
Rises 08:36:52 0° 353° (N) 2,678 7.1 -25.8°
Reaches altitude 10° 08:38:44 10° 354° (N) 1,904 6.2 -25.6°
Maximum altitude 08:42:53 90° 85° (E) 721 3.2 -25.1°
Enters shadow 08:43:14 78° 173° (S) 747 3.2 -25.1°
